Terminal Aerodrome Forecast
Issued by NWS King Salmon, AK

Home | Current Version | Previous Version | Text Only | Print | Product List | Glossary On
Versions: 1 2 3 4 5 6 7 8 9 10 11 12 13 14 15 16 17 18 19 20 21 22 23 24 25 26 27 28 29 30 31 32 33 34 35 36 37 38 39 40 41 42 43 44 45 46 47 48
000
FTAK31 PANC 271744
TAFAKN
TAF
PAKN 271744Z 2718/2818 29012G22KT P6SM VCSH FEW050 BKN100
     FM272000 30012G24KT P6SM SCT035 BKN070
     FM280500 32015G32KT P6SM BKN050
     FM281200 32010G20KT P6SM SCT050=

USA.gov is the U.S. government's official web portal to all federal, state and local government web resources and services.